[[[{"header":{"parameterUnit":"kt","parameterCategory":2,"dx":1,"dy":1,"la1":30.253999710083008,"la2":30.299108505249023,"lo1":-89.0895004272461,"lo2":-89.04439544677734,"nx":28,"ny":28,"refTime":"2022-10-19T09:00:00:Z","depth":0,"parameterNumber":1,"parameterNumberName":"U-component_of_WINDS"},"data":[1.6979,1.6987,1.6968,1.6969,1.6951,1.6948,1.6941,1.6929,1.6915,1.6909,1.6902,1.6882,1.686,1.6847,1.6838,1.6829,1.6828,1.6846,1.6833,1.6768,1.6757,1.6747,1.6745,1.6846,1.6846,1.6904,1.6905,1.6905,1.6938,1.692,1.6914,1.6895,1.689,1.6861,1.6843,1.6841,1.6838,1.682,1.6811,1.6804,1.6795,1.6765,1.6753,1.6757,1.6742,1.6756,1.6755,1.6753,1.6682,1.6679,1.6768,1.6768,1.6768,1.6768,1.6768,1.6768,1.6857,1.6862,1.6838,1.6831,1.6816,1.6803,1.6804,1.6779,1.6773,1.6757,1.6733,1.673,1.6707,1.6681,1.6667,1.6664,1.6646,1.6653,1.6655,1.6658,1.6666,1.6589,1.6661,1.666,1.666,1.666,1.666,0,1.6791,1.6774,1.6766,1.6753,1.6746,1.6733,1.6717,1.6717,1.6672,1.6668,1.6661,1.6653,1.6637,1.6628,1.6611,1.6594,1.6562,1.6555,1.6561,1.6574,1.6589,1.6583,1.6471,1.6553,1.6552,1.6552,1.6551,1.6551,1.671,1.6717,1.6681,1.6679,1.6664,1.666,1.6653,1.6612,1.6606,1.658,1.6586,1.6576,1.6565,1.6556,1.6525,1.6513,1.6497,1.6532,1.6495,1.6508,1.65,1.6501,1.6502,1.654,1.6541,1.6542,1.6543,0,1.6667,1.6632,1.6636,1.6598,1.6589,1.6599,1.6567,1.657,1.6544,1.6544,1.6542,1.6501,1.6494,1.6456,1.6439,1.6421,1.6439,1.6423,1.6448,1.6443,1.6471,1.647,1.6566,1.6577,1.647,1.6471,1.6472,0,1.6584,1.6595,1.6542,1.6546,1.6557,1.6515,1.6527,1.6505,1.6483,1.6482,1.644,1.644,1.6392,1.6387,1.6358,1.6366,1.6362,1.6348,1.6341,1.6353,1.6355,1.6349,1.6345,1.6321,1.632,1.632,1.632,0,1.6522,1.6504,1.651,1.65,1.646,1.6464,1.6447,1.6421,1.6414,1.6398,1.6393,1.6377,1.6369,1.6358,1.6322,1.6299,1.6329,1.6289,1.6315,1.6317,1.6324,1.6324,1.6418,1.6319,1.6319,1.6319,1.6318,0,1.6449,1.6434,1.6447,1.6413,1.641,1.6413,1.6395,1.6389,1.6364,1.6347,1.6333,1.63,1.6301,1.6265,1.6267,1.6248,1.6243,1.6229,1.623,1.6228,1.619,1.625,1.6341,1.635,1.6227,1.6227,1.6226,0,1.6388,1.6391,1.6354,1.6367,1.6363,1.6315,1.6318,1.6297,1.6273,1.6266,1.6239,1.6231,1.6196,1.6188,1.6194,1.6166,1.6191,1.6161,1.6153,1.6154,1.6164,1.6247,1.6271,1.6325,1.6215,1.6217,1.6217,0,1.6336,1.6285,1.629,1.6277,1.6241,1.6236,1.6239,1.6221,1.622,1.6198,1.6201,1.6187,1.616,1.6147,1.6117,1.6125,1.6172,1.6095,1.6094,1.6112,1.6206,1.6229,1.6238,1.6151,1.6152,1.6153,1.6209,0,1.624,1.6235,1.6245,1.6216,1.6206,1.621,1.6169,1.6164,1.6137,1.6111,1.6111,1.6081,1.6062,1.6061,1.6033,1.6062,1.6052,1.6023,1.5985,1.6039,1.6057,1.6064,1.5963,1.5961,1.596,1.5959,0,0,1.6191,1.6183,1.614,1.614,1.6129,1.6078,1.6087,1.607,1.6036,1.603,1.6009,1.5985,1.5961,1.5966,1.598,1.5971,1.5973,1.5954,1.6013,1.602,1.6025,1.6045,1.6053,1.5957,1.5957,1.5956,1.5956,0,1.6147,1.6124,1.6132,1.6113,1.6082,1.6053,1.6055,1.6015,1.5999,1.5997,1.5955,1.595,1.593,1.5911,1.5899,1.5953,1.592,1.5949,1.5994,1.6003,1.6011,1.6018,1.6039,1.6047,1.5953,1.5953,1.5953,0,1.609,1.606,1.6059,1.603,1.6009,1.6005,1.5955,1.5952,1.5948,1.589,1.589,1.5867,1.5837,1.5846,1.5848,1.5828,1.5876,1.5852,1.5858,1.5857,1.5864,1.5874,1.5882,1.5772,1.5772,1.5771,0,0,1.6057,1.6051,1.6006,1.6017,1.6007,1.5963,1.5956,1.5927,1.5901,1.5891,1.5861,1.5837,1.5825,1.5818,1.5805,1.582,1.5811,1.5831,1.584,1.5847,1.585,1.5859,1.5869,1.577,1.5769,1.5769,0,0,1.6041,1.5989,1.5965,1.5973,1.5951,1.5906,1.5915,1.5884,1.5868,1.5862,1.5812,1.5803,1.581,1.5789,1.5772,1.5791,1.5754,1.5757,1.5804,1.5814,1.5823,1.5828,1.5716,0,0,0,0,0,1.5974,1.5996,1.5975,1.597,1.5931,1.5918,1.5912,1.5872,1.5848,1.5856,1.5826,1.5791,1.577,1.5753,1.5749,1.5769,1.5748,1.5752,1.5755,1.5819,1.583,1.584,0,0,0,0,0,0,1.5972,1.5966,1.5974,1.5931,1.5921,1.5916,1.5867,1.5856,1.5846,1.5839,1.5798,1.5789,1.5754,1.5753,1.5749,1.5769,1.5717,1.5749,1.5753,1.5755,1.5823,1.5832,1.584,0,0,0,0,0,1.597,1.5965,1.5913,1.593,1.5922,1.5874,1.5866,1.5856,1.5848,1.58,1.5791,1.5818,1.5756,1.575,1.5751,1.5772,1.5719,1.5718,1.5751,1.5754,1.5756,1.5828,0,0,0,0,0,0,1.5968,1.5956,1.591,1.5907,1.5918,1.5873,1.5864,1.5857,1.5808,1.5799,1.5818,1.5813,1.5757,1.5753,1.5748,1.5775,1.5721,1.572,1.5719,1.5753,1.5755,1.5757,0,0,0,0,0,0,1.5959,1.5953,1.5908,1.5896,1.589,1.5873,1.5865,1.5859,1.5808,1.5828,1.5823,1.5816,1.5763,1.5755,1.5751,1.5742,1.5722,1.5721,1.572,1.572,1.5755,1.5757,0,0,0,0,0,0,1.5956,1.5951,1.5897,1.5893,1.5887,1.584,1.5866,1.5828,1.5798,1.5831,1.5794,1.5793,1.5766,1.5762,1.5753,1.5746,1.5743,1.5722,1.5721,1.5721,1.572,0,0,0,0,0,0,0,1.5953,1.5993,1.5934,1.5889,1.5885,1.587,1.5869,1.5868,1.5798,1.5796,1.5795,1.5793,1.5728,1.5727,1.5726,1.5749,0,0,1.5722,1.5722,0,0,0,0,0,0,0,0,1.5994,1.5994,1.5934,1.5933,1.5932,1.587,1.5869,1.5868,1.5798,1.5796,1.5795,1.5794,1.5728,1.5727,1.5726,0,0,0,0,0,0,0,0,0,0,0,0,0,0,0,1.5934,1.5933,0,1.587,1.5869,1.5869,1.5797,1.5796,1.5795,1.5794,1.5728,1.5727,1.5726,0,0,0,0,0,0,0,0,0,0,0,0,0,0,0,0,0,0,0,0,0,0,0,0,0,0,0,0,0,0,0,0,0,0,0,0,0,0,0,0,0,0,0,0,0,0,0,0,0,0,0,0,0,0,0,0,0,0,0,0,0,0,0,0,0,0,0,0,0]}],[{"header":{"parameterUnit":"kt","parameterCategory":2,"dx":1,"dy":1,"la1":30.253999710083008,"la2":30.299108505249023,"lo1":-89.0895004272461,"lo2":-89.04439544677734,"nx":28,"ny":28,"refTime":"2022-10-19T09:00:00:Z","depth":0,"parameterNumber":2,"parameterNumberName":"V-component_of_WINDS"},"data":[-6.7902,-6.8037,-6.8067,-6.8234,-6.8289,-6.8408,-6.8459,-6.8529,-6.8592,-6.8735,-6.8822,-6.8866,-6.8939,-6.9049,-6.9144,-6.916,-6.9197,-6.9222,-6.9236,-6.91,-6.9083,-6.9067,-6.9036,-6.923,-6.923,-6.9371,-6.9372,-6.9373,-6.7794,-6.785,-6.7948,-6.8064,-6.8147,-6.8141,-6.8232,-6.8301,-6.8407,-6.8487,-6.8575,-6.8704,-6.8809,-6.8876,-6.8981,-6.9042,-6.9044,-6.9068,-6.9062,-6.9072,-6.8929,-6.8896,-6.9064,-6.9064,-6.9064,-6.9064,-6.9064,-6.9064,-6.7604,-6.7685,-6.7772,-6.788,-6.7947,-6.8023,-6.8105,-6.8157,-6.8253,-6.8369,-6.8387,-6.8507,-6.8591,-6.8734,-6.879,-6.8882,-6.8861,-6.8896,-6.8904,-6.8911,-6.8914,-6.8699,-6.8903,-6.8902,-6.8902,-6.8902,-6.8901,0,-6.7473,-6.7493,-6.7591,-6.7697,-6.7777,-6.7863,-6.7946,-6.7997,-6.805,-6.8127,-6.8241,-6.8311,-6.845,-6.8559,-6.8665,-6.8716,-6.8715,-6.872,-6.8744,-6.8734,-6.871,-6.8719,-6.848,-6.8713,-6.8712,-6.8711,-6.871,-6.8709,-6.7279,-6.7372,-6.7481,-6.7545,-6.7598,-6.7702,-6.777,-6.781,-6.788,-6.7988,-6.8056,-6.8168,-6.8259,-6.8436,-6.8494,-6.8598,-6.8598,-6.8682,-6.8613,-6.86,-6.8593,-6.8586,-6.8593,-6.8694,-6.8696,-6.8697,-6.8699,0,-6.7166,-6.7217,-6.7371,-6.747,-6.7498,-6.7592,-6.7675,-6.7758,-6.7801,-6.792,-6.795,-6.8017,-6.8128,-6.8174,-6.8311,-6.8331,-6.8481,-6.8481,-6.845,-6.8451,-6.8528,-6.8519,-6.8781,-6.8815,-6.8619,-6.8621,-6.8622,0,-6.7019,-6.714,-6.7208,-6.7295,-6.743,-6.7468,-6.76,-6.765,-6.7725,-6.782,-6.7829,-6.7917,-6.7963,-6.8057,-6.8088,-6.8219,-6.8247,-6.8268,-6.8274,-6.8265,-6.8262,-6.8299,-6.8288,-6.829,-6.8289,-6.8287,-6.8286,0,-6.6833,-6.7015,-6.7157,-6.7206,-6.7324,-6.739,-6.7442,-6.7528,-6.7594,-6.7688,-6.7731,-6.7838,-6.7896,-6.7977,-6.8014,-6.7965,-6.8178,-6.8118,-6.82,-6.8199,-6.8242,-6.8238,-6.8462,-6.8285,-6.8284,-6.8284,-6.8283,0,-6.6722,-6.6819,-6.7019,-6.7116,-6.7162,-6.7257,-6.7364,-6.7457,-6.7546,-6.7572,-6.7647,-6.7657,-6.778,-6.7716,-6.7884,-6.7808,-6.7863,-6.7897,-6.7904,-6.7914,-6.784,-6.7954,-6.8167,-6.8188,-6.7927,-6.7924,-6.7921,0,-6.6492,-6.671,-6.6745,-6.6935,-6.7041,-6.7042,-6.7148,-6.7228,-6.7272,-6.7367,-6.7414,-6.7523,-6.7486,-6.7526,-6.7604,-6.7656,-6.7755,-6.7645,-6.7774,-6.7779,-6.7746,-6.7943,-6.7961,-6.8116,-6.7884,-6.7888,-6.7891,0,-6.6321,-6.6467,-6.6499,-6.6555,-6.6671,-6.6761,-6.6883,-6.7,-6.7061,-6.7153,-6.7253,-6.741,-6.7386,-6.7454,-6.7474,-6.7552,-6.7689,-6.7517,-6.7519,-6.7542,-6.7871,-6.7887,-6.7913,-6.7685,-6.7689,-6.7693,-6.7861,0,-6.6132,-6.6249,-6.6339,-6.6468,-6.6546,-6.667,-6.6721,-6.6796,-6.6807,-6.6851,-6.7002,-6.7083,-6.7201,-6.7246,-6.7259,-6.7425,-6.7403,-6.7378,-6.7316,-6.7447,-6.7503,-6.7527,-6.7228,-6.7227,-6.7225,-6.7224,0,0,-6.5897,-6.6067,-6.6103,-6.6224,-6.6292,-6.6293,-6.6419,-6.6485,-6.6619,-6.6664,-6.6631,-6.6862,-6.693,-6.7107,-6.7152,-6.7203,-6.7235,-6.7189,-6.7386,-6.7404,-6.742,-6.748,-6.7503,-6.7222,-6.7222,-6.7221,-6.7221,0,-6.5838,-6.5911,-6.6038,-6.6108,-6.6213,-6.6254,-6.6284,-6.6389,-6.6422,-6.6574,-6.657,-6.6668,-6.6854,-6.6923,-6.6983,-6.7169,-6.716,-6.7202,-6.7283,-6.7372,-6.7391,-6.7408,-6.747,-6.7493,-6.7218,-6.7218,-6.7218,0,-6.5675,-6.5753,-6.5821,-6.5979,-6.6048,-6.6159,-6.6108,-6.6229,-6.6311,-6.6306,-6.6455,-6.6507,-6.6606,-6.677,-6.6845,-6.6817,-6.7087,-6.7014,-6.7023,-6.7031,-6.7119,-6.7143,-6.7163,-6.6888,-6.6887,-6.6886,0,0,-6.5617,-6.5728,-6.5824,-6.597,-6.6014,-6.6077,-6.6142,-6.6161,-6.6251,-6.6287,-6.6354,-6.644,-6.6548,-6.6618,-6.6723,-6.6897,-6.6918,-6.6971,-6.6987,-6.6999,-6.7014,-6.7105,-6.7128,-6.688,-6.688,-6.688,0,0,-6.5588,-6.5706,-6.5703,-6.5879,-6.5965,-6.6069,-6.6155,-6.6153,-6.6253,-6.6244,-6.6281,-6.6306,-6.646,-6.6512,-6.6437,-6.6701,-6.664,-6.6659,-6.6661,-6.6682,-6.6697,-6.668,-6.6394,0,0,0,0,0,-6.5555,-6.5691,-6.5687,-6.5725,-6.5925,-6.6072,-6.6097,-6.6131,-6.6086,-6.6153,-6.6208,-6.6195,-6.6478,-6.6412,-6.6448,-6.6531,-6.6814,-6.6826,-6.6837,-6.6881,-6.6902,-6.692,0,0,0,0,0,0,-6.557,-6.5616,-6.5684,-6.5793,-6.5838,-6.6067,-6.5998,-6.6011,-6.608,-6.6075,-6.6185,-6.6199,-6.623,-6.6396,-6.6428,-6.6506,-6.6383,-6.6818,-6.6828,-6.6837,-6.6888,-6.6905,-6.692,0,0,0,0,0,-6.5582,-6.5619,-6.5931,-6.5791,-6.583,-6.5908,-6.5993,-6.6003,-6.6057,-6.6143,-6.6156,-6.6077,-6.6231,-6.626,-6.6415,-6.649,-6.6362,-6.6373,-6.6825,-6.6833,-6.684,-6.6897,0,0,0,0,0,0,-6.5591,-6.5629,-6.594,-6.5953,-6.5743,-6.5896,-6.5921,-6.5997,-6.6121,-6.6136,-6.6036,-6.603,-6.6234,-6.6256,-6.6278,-6.6483,-6.6344,-6.6356,-6.6363,-6.6831,-6.6837,-6.6843,0,0,0,0,0,0,-6.5609,-6.564,-6.5946,-6.5884,-6.589,-6.5885,-6.5907,-6.6045,-6.6123,-6.6007,-6.6006,-6.6032,-6.62,-6.6253,-6.6271,-6.6484,-6.633,-6.6342,-6.6349,-6.6354,-6.6836,-6.6841,0,0,0,0,0,0,-6.5623,-6.565,-6.588,-6.5885,-6.589,-6.604,-6.6006,-6.6209,-6.607,-6.6001,-6.6058,-6.6053,-6.6198,-6.6216,-6.6266,-6.6472,-6.6481,-6.6331,-6.6338,-6.6344,-6.6347,0,0,0,0,0,0,0,-6.5634,-6.5449,-6.5862,-6.5887,-6.5891,-6.6074,-6.6078,-6.6081,-6.6069,-6.6064,-6.6059,-6.6055,-6.6265,-6.6278,-6.629,-6.6462,0,0,-6.6329,-6.6335,0,0,0,0,0,0,0,0,-6.5439,-6.5447,-6.5862,-6.5865,-6.5868,-6.6075,-6.6078,-6.6081,-6.6068,-6.6064,-6.606,-6.6057,-6.6269,-6.6279,-6.6289,0,0,0,0,0,0,0,0,0,0,0,0,0,0,0,-6.5863,-6.5865,0,-6.6075,-6.6078,-6.608,-6.6067,-6.6064,-6.6061,-6.6058,-6.6271,-6.628,-6.6288,0,0,0,0,0,0,0,0,0,0,0,0,0,0,0,0,0,0,0,0,0,0,0,0,0,0,0,0,0,0,0,0,0,0,0,0,0,0,0,0,0,0,0,0,0,0,0,0,0,0,0,0,0,0,0,0,0,0,0,0,0,0,0,0,0,0,0,0,0]}]]]